Regional Weather Roundup
Issued by NWS Albany, NY

Home | Current Version | Previous Version | Text Only | Print | Product List | Glossary On
Versions: 1 2 3 4 5 6 7 8 9 10 11 12 13 14 15 16 17 18 19 20 21 22 23 24 25 26 27 28 29 30 31 32 33 34 35 36 37 38 39 40 41 42 43 44 45 46 47 48 49 50
351
ASUS41 KALY 170410
RWRALY

NEW YORK STATE HOURLY WEATHER ROUNDUP
NATIONAL WEATHER SERVICE ALBANY NY
1100 PM EST FRI FEB 16 2018

NOTE: "FAIR" INDICATES FEW OR NO CLOUDS BELOW 12,000 FEET WITH NO
SIGNIFICANT WEATHER AND/OR NO OBSTRUCTIONS TO VISIBILITY.

NYZ032-033-038>043-046>054-057>066-NYZ062>081-082-084-170500-
EAST


CITY           SKY/WX    TMP DP  RH WIND       PRES   REMARKS
ALBANY         CLOUDY    32  23  69 NW12      30.15R WCI  23
GLENS FALLS    FAIR      25  12  58 VRB6      30.16R WCI  18
POUGHKEEPSIE   FAIR      34  17  50 NW10      30.13R WCI  26
NEWBURGH       PTCLDY    32  18  55 NW14      30.12R WCI  22
MONTGOMERY     FAIR      32  16  51 NW10      30.13R WCI  24
WHITE PLAINS   FAIR      35  18  49 NW14G23   30.09R WCI  26
ISLIP          FAIR      38  24  57 NW13      30.09R WCI  30
NEW YORK CITY  FAIR      39  20  46 NW17G24   30.12R WCI  30
CENTRAL PARK   FAIR      37  17  44 NW13G24   30.14R WCI  29
$$

NYZ005>009-017-018-044>046-055-056-170500-
CENTRAL


CITY           SKY/WX    TMP DP  RH WIND       PRES   REMARKS
FULTON         FAIR      25  14  63 NW10      30.23R WCI  15
SYRACUSE       FAIR      24  15  68 W9        30.23R WCI  14
ROME           FAIR      26  19  74 W13       30.20R WCI  15
ELMIRA         FAIR      27  17  66 NW10      30.20R WCI  17
BINGHAMTON     FAIR      21  12  68 NW15G25   30.14R WCI   8
MONTICELLO     FAIR      25  14  63 NW9       30.12R WCI  15
$$

NYZ026>034-041>043-087-170500-
NORTH


CITY           SKY/WX    TMP DP  RH WIND       PRES   REMARKS
WATERTOWN      FAIR      20  16  84 W7        30.21R WCI  11
FORT DRUM      NOT AVBL
OGDENSBURG     FAIR       6   3  87 CALM      30.19R
MASSENA        FAIR      13   7  77 SW5       30.20R WCI   5
SARANAC LAKE   FAIR      13   7  77 CALM      30.06R
PLATTSBURGH    FAIR      23   9  55 NW9       30.17R WCI  13
$$

NYZ001>004-010>016-019>021-085-170500-
WEST


CITY           SKY/WX    TMP DP  RH WIND       PRES   REMARKS
NIAGARA FALLS  FAIR      22  13  68 SW6       30.26R WCI  14
BUFFALO        FAIR      23  14  68 SW7       30.26R WCI  15
DUNKIRK        FAIR      20  15  81 SW3       30.28R
JAMESTOWN        N/A    N/A N/A N/A MISG        N/A
WELLSVILLE     FAIR      20  11  68 NW13      30.17R WCI   7
ROCHESTER      FAIR      25  15  66 W7        30.25R WCI  17
PENN YAN       FAIR      24  11  57 W6        30.22R WCI  17
$$

             KEY
       WCI = WIND CHILL INDEX
       VSB = VISIBILITY
       HX  = HEAT INDEX
$$




USA.gov is the U.S. government's official web portal to all federal, state and local government web resources and services.